Location: Unnamed
(39.4956°N, 6.3666°W)
Time: 11:23:02
(UTC+02:00)

ISS - Visible Passes

Search period start: 08 May 2026 00:00
Search period end: 18 May 2026 00:00
Orbit: 414 x 424 km, 51.6° (Epoch: 8 May)

Date Brightness Start Highest point End Pass type
(mag) Time Alt. Az. Time Alt. Az. Time Alt. Az.
8 May -0.7 04:07:33 13° NNW 04:09:09 17° NNE 04:11:25 10° ENE visible
8 May -3.7 05:43:01 10° NW 05:46:24 79° NE 05:49:46 10° SE visible
8 May -3.4 22:25:34 10° SSW 22:28:45 42° SE 22:31:55 10° ENE visible
9 May -1.5 00:02:48 10° W 00:05:38 25° NNW 00:08:14 11° NNE visible
9 May -2.7 04:57:14 25° NNW 04:58:47 46° NNE 05:02:03 10° ESE visible
9 May -2.3 06:32:55 10° W 06:35:21 19° SW 06:37:47 10° S visible
9 May -2.2 23:14:49 10° W 23:17:56 37° NNW 23:21:05 10° NE visible
10 May -0.4 00:53:59 10° NW 00:55:29 12° NNW 00:57:00 10° NNE visible
10 May -2.5 05:49:02 25° S 05:49:02 25° S 05:50:57 10° SSE visible
10 May -3.2 22:27:00 10° WSW 22:30:17 60° NW 22:33:36 10° NE visible
11 May -0.6 00:05:38 10° NW 00:07:38 15° NNW 00:09:39 10° NNE visible
11 May -0.2 01:44:46 10° N 01:45:08 10° N 01:45:08 10° N visible
11 May -0.9 23:17:21 10° WNW 23:19:49 19° NNW 23:22:17 10° NNE visible
12 May -0.3 00:56:59 10° NNW 00:57:40 10° N 00:58:21 10° N visible
12 May -1.4 22:29:12 10° W 22:32:02 25° NNW 22:34:53 10° NNE visible
13 May -0.4 00:08:44 10° NNW 00:09:45 11° N 00:10:46 10° N visible
13 May -0.2 01:45:57 10° NNW 01:46:25 11° N 01:46:25 11° N visible
13 May -0.6 23:20:19 10° NW 23:21:50 12° NNW 23:23:21 10° NNE visible
14 May -0.5 00:58:35 10° NNW 00:59:49 12° N 01:00:25 11° NNE visible
14 May -0.8 22:31:56 10° NW 22:33:57 15° NNW 22:35:57 10° NNE visible
15 May -0.5 00:11:06 10° N 00:11:53 11° N 00:12:41 10° NNE visible
15 May -0.3 01:47:01 10° NNW 01:47:18 11° NNW 01:47:18 11° NNW visible
15 May -0.5 23:23:16 10° NNW 23:23:56 10° N 23:24:36 10° N visible
16 May -0.8 00:59:36 10° NNW 01:01:15 16° N 01:01:15 16° N visible
16 May -0.6 22:34:57 10° NNW 22:35:58 11° N 22:36:59 10° N visible
17 May -0.9 00:12:12 10° NNW 00:13:56 13° NNE 00:15:10 12° NE visible
17 May -0.8 23:24:46 10° NNW 23:26:00 12° N 23:27:14 10° NNE visible
